| time (UTC) | temp F | wind direction | speed knots | gust knots | rain 1hr in | rain 24hr in | rain mn in | humidity % | barometer mb |
| 20260505101005 | 49 | 333 | 0.0 | 0.0 | 0.00 | 0.00 | 0.00 | 86 | 1011.5 |
| 20260505100005 | 49 | 333 | 0.0 | 0.0 | 0.00 | 0.00 | 0.00 | 85 | 1011.4 |
| 20260505095005 | 49 | 333 | 0.0 | 0.0 | 0.00 | 0.00 | 0.00 | 85 | 1011.3 |
| 20260505094005 | 50 | 327 | 0.0 | 0.0 | 0.00 | 0.00 | 0.00 | 83 | 1011.2 |
| 20260505093004 | 50 | 15 | 0.0 | 0.0 | 0.00 | 0.00 | 0.00 | 83 | 1011.1 |
| 20260505092004 | 50 | 322 | 0.0 | 0.0 | 0.00 | 0.00 | 0.00 | 83 | 1011.1 |
| 20260505091005 | 51 | 1 | 0.0 | 0.0 | 0.00 | 0.00 | 0.00 | 81 | 1011.1 |
| 20260505090005 | 51 | 1 | 0.0 | 0.0 | 0.00 | 0.00 | 0.00 | 82 | 1011.0 |
| 20260505085005 | 51 | 11 | 0.0 | 0.0 | 0.00 | 0.00 | 0.00 | 80 | 1010.8 |
| 20260505084005 | 51 | 54 | 0.0 | 0.0 | 0.00 | 0.00 | 0.00 | 80 | 1010.8 |
| 20260505083005 | 51 | 62 | 0.0 | 0.0 | 0.00 | 0.00 | 0.00 | 80 | 1010.7 |
| 20260505082005 | 52 | 10 | 0.0 | 0.0 | 0.00 | 0.00 | 0.00 | 79 | 1010.7 |
| 20260505080005 | 53 | 1 | 0.0 | 1.7 | 0.00 | 0.00 | 0.00 | 78 | 1010.5 |
| 20260505075018 | 53 | 1 | 1.7 | 1.7 | 0.00 | 0.00 | 0.00 | 78 | 1010.5 |
| 20260505074006 | 53 | 1 | 0.0 | 0.9 | 0.00 | 0.00 | 0.00 | 78 | 1010.5 |
| 20260505073004 | 54 | 1 | 0.0 | 0.0 | 0.00 | 0.00 | 0.00 | 78 | 1010.5 |
| 20260505072005 | 54 | 1 | 0.0 | 1.7 | 0.00 | 0.00 | 0.00 | 78 | 1010.5 |
| 20260505071004 | 55 | 1 | 0.0 | 1.7 | 0.00 | 0.00 | 0.00 | 79 | 1010.4 |
| 20260505070005 | 55 | 1 | 2.6 | 2.6 | 0.00 | 0.00 | 0.00 | 78 | 1010.2 |
| 20260505064005 | 56 | 333 | 0.0 | 1.7 | 0.00 | 0.00 | 0.00 | 78 | 1009.8 |
| 20260505063005 | 56 | 43 | 0.0 | 0.0 | 0.00 | 0.00 | 0.00 | 78 | 1009.7 |
| 20260505062005 | 57 | 300 | 0.0 | 0.0 | 0.00 | 0.00 | 0.00 | 78 | 1009.5 |
| 20260505061005 | 57 | 307 | 0.0 | 0.0 | 0.00 | 0.00 | 0.00 | 78 | 1009.5 |
| 20260505055005 | 58 | 352 | 0.0 | 0.0 | 0.00 | 0.00 | 0.00 | 76 | 1009.3 |
| 20260505054005 | 59 | 20 | 0.0 | 0.0 | 0.00 | 0.00 | 0.00 | 75 | 1009.2 |
| 20260505053005 | 60 | 28 | 0.0 | 1.7 | 0.00 | 0.00 | 0.00 | 72 | 1009.2 |
| 20260505051005 | 60 | 156 | 1.7 | 2.6 | 0.00 | 0.00 | 0.00 | 72 | 1009.2 |
| 20260505041005 | 63 | 77 | 10.4 | 12.2 | 0.00 | 0.00 | 0.00 | 69 | 1008.6 |
| 20260505034005 | 67 | 103 | 5.2 | 10.4 | 0.00 | 0.00 | 0.00 | 56 | 1008.6 |
| 20260505033005 | 67 | 310 | 1.7 | 1.7 | 0.00 | 0.00 | 0.00 | 54 | 1007.9 |
| 20260505032005 | 68 | 89 | 0.9 | 7.0 | 0.00 | 0.00 | 0.00 | 52 | 1007.5 |
| 20260505031004 | 69 | 127 | 5.2 | 7.8 | 0.00 | 0.00 | 0.00 | 48 | 1007.1 |
| 20260505030005 | 69 | 192 | 3.5 | 8.7 | 0.00 | 0.00 | 0.00 | 48 | 1007.2 |
| 20260505025005 | 69 | 104 | 6.1 | 12.2 | 0.00 | 0.00 | 0.00 | 47 | 1007.0 |
| 20260505024004 | 70 | 101 | 5.2 | 13.9 | 0.00 | 0.00 | 0.00 | 47 | 1006.8 |
| 20260505022005 | 70 | 70 | 7.8 | 18.2 | 0.00 | 0.00 | 0.00 | 46 | 1006.8 |
| 20260505021005 | 71 | 67 | 11.3 | 20.0 | 0.00 | 0.00 | 0.00 | 45 | 1006.8 |
| 20260505020005 | 72 | 23 | 6.1 | 17.4 | 0.00 | 0.00 | 0.00 | 43 | 1006.5 |
| 20260505015005 | 72 | 69 | 6.1 | 11.3 | 0.00 | 0.00 | 0.00 | 43 | 1006.4 |
| 20260505014004 | 73 | 57 | 5.2 | 14.8 | 0.00 | 0.00 | 0.00 | 43 | 1006.4 |
| 20260505013004 | 77 | 34 | 10.4 | 20.0 | 0.00 | 0.00 | 0.00 | 36 | 1006.5 |
| 20260505012005 | 79 | 188 | 1.7 | 6.1 | 0.00 | 0.00 | 0.00 | 37 | 1006.0 |
| 20260505011005 | 79 | 155 | 3.5 | 6.1 | 0.00 | 0.00 | 0.00 | 38 | 1005.9 |
| 20260505010005 | 79 | 112 | 3.5 | 5.2 | 0.00 | 0.00 | 0.00 | 38 | 1005.9 |
| 20260505005005 | 79 | 249 | 4.3 | 7.8 | 0.00 | 0.00 | 0.00 | 34 | 1005.8 |
| 20260505003005 | 80 | 195 | 5.2 | 7.8 | 0.00 | 0.00 | 0.00 | 33 | 1005.9 |
| 20260505002005 | 81 | 138 | 1.7 | 7.0 | 0.00 | 0.00 | 0.00 | 35 | 1006.0 |
| 20260505001004 | 81 | 173 | 2.6 | 6.1 | 0.00 | 0.00 | 0.00 | 36 | 1006.0 |
| 20260505000005 | 81 | 62 | 2.6 | 6.1 | 0.00 | 0.00 | 0.00 | 33 | 1005.9 |
| 20260504234005 | 82 | 137 | 3.5 | 6.1 | 0.00 | 0.00 | 0.00 | 32 | 1006.0 |
| 20260504233004 | 82 | 112 | 0.9 | 6.1 | 0.00 | 0.00 | 0.00 | 36 | 1006.2 |
| 20260504232005 | 82 | 125 | 1.7 | 7.0 | 0.00 | 0.00 | 0.00 | 37 | 1006.2 |
| 20260504231005 | 82 | 140 | 1.7 | 10.4 | 0.00 | 0.00 | 0.00 | 34 | 1006.3 |
| 20260504230005 | 82 | 112 | 1.7 | 6.1 | 0.00 | 0.00 | 0.00 | 34 | 1006.3 |
| 20260504224004 | 81 | 356 | 3.5 | 7.0 | 0.00 | 0.00 | 0.00 | 38 | 1006.3 |
| 20260504223005 | 81 | 122 | 0.9 | 8.7 | 0.00 | 0.00 | 0.00 | 29 | 1006.5 |
| 20260504222005 | 82 | 144 | 1.7 | 14.8 | 0.00 | 0.00 | 0.00 | 33 | 1006.7 |
| 20260504221005 | 82 | 328 | 3.5 | 8.7 | 0.00 | 0.00 | 0.00 | 32 | 1006.7 |
| 20260504220006 | 82 | 181 | 5.2 | 7.8 | 0.00 | 0.00 | 0.00 | 35 | 1006.7 |
| 20260504215005 | 81 | 58 | 4.3 | 5.2 | 0.00 | 0.00 | 0.00 | 34 | 1006.9 |
| 20260504214004 | 81 | 114 | 3.5 | 8.7 | 0.00 | 0.00 | 0.00 | 36 | 1007.0 |
| 20260504213005 | 82 | 97 | 2.6 | 7.0 | 0.00 | 0.00 | 0.00 | 34 | 1007.0 |
| 20260504210005 | 81 | 266 | 2.6 | 7.8 | 0.00 | 0.00 | 0.00 | 36 | 1007.2 |
| 20260504205005 | 80 | 194 | 4.3 | 7.8 | 0.00 | 0.00 | 0.00 | 36 | 1007.3 |
| 20260504204005 | 80 | 255 | 4.3 | 6.1 | 0.00 | 0.00 | 0.00 | 35 | 1007.3 |
| 20260504203006 | 79 | 128 | 2.6 | 6.1 | 0.00 | 0.00 | 0.00 | 39 | 1007.4 |
| 20260504201005 | 78 | 105 | 2.6 | 5.2 | 0.00 | 0.00 | 0.00 | 42 | 1007.5 |
| 20260504200005 | 78 | 289 | 1.7 | 6.1 | 0.00 | 0.00 | 0.00 | 38 | 1007.5 |
| 20260504194004 | 76 | 163 | 1.7 | 5.2 | 0.00 | 0.00 | 0.00 | 44 | 1007.7 |
| 20260504193004 | 75 | 105 | 1.7 | 2.6 | 0.00 | 0.00 | 0.00 | 41 | 1007.8 |
| 20260504192006 | 74 | 126 | 1.7 | 5.2 | 0.00 | 0.00 | 0.00 | 41 | 1007.8 |
| 20260504191008 | 74 | 154 | 3.5 | 5.2 | 0.00 | 0.00 | 0.00 | 41 | 1007.9 |
| 20260504190005 | 73 | 191 | 4.3 | 7.0 | 0.00 | 0.00 | 0.00 | 43 | 1008.1 |
| 20260504185005 | 73 | 330 | 2.6 | 6.1 | 0.00 | 0.00 | 0.00 | 40 | 1008.2 |
| 20260504184004 | 72 | 179 | 1.7 | 7.0 | 0.00 | 0.00 | 0.00 | 47 | 1008.2 |
| 20260504183005 | 71 | 209 | 2.6 | 7.0 | 0.00 | 0.00 | 0.00 | 44 | 1008.4 |
| 20260504182004 | 71 | 150 | 2.6 | 6.1 | 0.00 | 0.00 | 0.00 | 46 | 1008.6 |
| 20260504181004 | 70 | 156 | 5.2 | 6.1 | 0.00 | 0.00 | 0.00 | 48 | 1008.6 |
| 20260504175005 | 68 | 120 | 1.7 | 7.0 | 0.00 | 0.00 | 0.00 | 54 | 1008.8 |
| 20260504174004 | 67 | 350 | 3.5 | 6.1 | 0.00 | 0.00 | 0.00 | 50 | 1008.9 |
| 20260504173005 | 66 | 243 | 2.6 | 7.0 | 0.00 | 0.00 | 0.00 | 54 | 1009.1 |
| 20260504172004 | 66 | 233 | 4.3 | 7.0 | 0.00 | 0.00 | 0.00 | 54 | 1009.2 |
| 20260504171004 | 66 | 237 | 3.5 | 6.1 | 0.00 | 0.00 | 0.00 | 55 | 1009.4 |
| 20260504151005 | 53 | 97 | 2.6 | 2.6 | 0.00 | 0.00 | 0.00 | 75 | 1011.1 |
| 20260504141005 | 46 | 93 | 0.0 | 0.0 | 0.00 | 0.00 | 0.00 | 87 | 1011.9 |